This is the latest recevied weather packets stored in our database for station/object KE8AFF-13. If no packets are shown the sender has not sent any weather packets the latest 1 day(s).
| Time | Temp. | Humidity | Pressure | Rain* | Wind** | Luminosity | Snow |
|---|---|---|---|---|---|---|---|
| 1778019901 | 12.78° C | 99% | 1007.5 hPa | 3.05 mm | 1.34 m/s, 240° | 16 W/m² | - |
| 1778019596 | 14.44° C | 99% | 1007.5 hPa | 2.29 mm | 3.58 m/s, 347° | 7 W/m² | - |
| 1778019294 | 14.44° C | 99% | 1007.2 hPa | 3.05 mm | 0.89 m/s, 234° | 23 W/m² | - |
| 1778018991 | 14.44° C | 99% | 1007.2 hPa | 3.56 mm | 0.45 m/s, 194° | 40 W/m² | - |
| 1778018688 | 14.44° C | 99% | 1007.1 hPa | 1.27 mm | 1.34 m/s, 216° | 18 W/m² | - |
| 1778018385 | 14.44° C | 99% | 1007.4 hPa | 1.27 mm | 0.45 m/s, 222° | 39 W/m² | - |
| 1778018084 | 14.44° C | 99% | 1007.3 hPa | 1.27 mm | 0 m/s | 53 W/m² | - |
| 1778017781 | 14.44° C | 99% | 1007 hPa | 1.78 mm | 0.45 m/s, 224° | 43 W/m² | - |
| 1778017479 | 14.44° C | 99% | 1007 hPa | 2.29 mm | 0 m/s | 56 W/m² | - |
| 1778017176 | 14.44° C | 99% | 1007 hPa | 2.29 mm | 0.45 m/s, 219° | 59 W/m² | - |
| 1778016873 | 14.44° C | 99% | 1006.8 hPa | 3.05 mm | 0.45 m/s, 209° | 63 W/m² | - |
| 1778016569 | 14.44° C | 99% | 1007.1 hPa | 3.05 mm | 0.89 m/s, 331° | 57 W/m² | - |
| 1778016267 | 14.44° C | 99% | 1007 hPa | 7.87 mm | 0 m/s | 55 W/m² | - |
| 1778015963 | 15° C | 98% | 1007.3 hPa | 10.67 mm | 0.45 m/s, 241° | 47 W/m² | - |
| 1778015660 | 15° C | 98% | 1007.3 hPa | 6.1 mm | 0.89 m/s, 311° | 16 W/m² | - |
| 1778015357 | 15° C | 98% | 1006.7 hPa | 2.29 mm | 1.34 m/s, 263° | 20 W/m² | - |
| 1778015063 | 15° C | 97% | 1006.7 hPa | 0.51 mm | 1.34 m/s, 320° | 25 W/m² | - |
| 1778014751 | 15° C | 97% | 1006.2 hPa | 0.51 mm | 0.89 m/s, 259° | 27 W/m² | - |
| 1778014449 | 15° C | 97% | 1006.5 hPa | 0.51 mm | 0.89 m/s, 279° | 34 W/m² | - |
| 1778014146 | 15° C | 96% | 1006.3 hPa | 0 mm | 0.89 m/s, 237° | 78 W/m² | - |
| 1778013843 | 15.56° C | 96% | 1006.6 hPa | 0 mm | 1.34 m/s, 7° | 116 W/m² | - |
| 1778013540 | 15.56° C | 96% | 1006.6 hPa | 0 mm | 0.45 m/s, 217° | 95 W/m² | - |
| 1778013236 | 15.56° C | 96% | 1006.8 hPa | 0 mm | 0.89 m/s, 245° | 82 W/m² | - |
| 1778012933 | 15.56° C | 96% | 1006.8 hPa | 0 mm | 0.89 m/s, 341° | 132 W/m² | - |
| 1778012629 | 15.56° C | 95% | 1006.8 hPa | 0 mm | 0.45 m/s, 342° | 116 W/m² | - |
* Rain latest hour (hover to see other rain measurements)
** Current wind speed in m/s (hover to see current wind gust speed)